#timestamp,LO_Frequency,Hit,StdDev 
1505134815.2,286047000.6,N,1.4
1505134835.1,286047000.3,N,1.4
1505134836.0,286047000.3,N,1.4
1505134855.8,286046998.1,N,1.4
1505134875.6,286046998.7,N,1.4
1505134895.5,286047000.7,N,1.4
1505134915.3,286046998.9,N,1.4
1505134935.2,286046998.5,N,1.4
1505134955.9,286047000.7,N,1.4
1505134975.7,286047001.0,N,1.4
1505134995.6,286047000.9,N,1.4
1505135015.4,286047002.8,N,1.4
1505135035.3,286047002.4,N,1.4
1505135055.1,286047001.6,N,1.4
1505135056.0,286047001.6,N,1.3
1505135075.8,286047001.9,N,1.3
1505135095.7,286047002.6,N,1.4
1505135115.5,286046999.7,N,1.4
1505135135.4,286047002.5,N,1.4
1505135155.2,286047002.7,N,1.5
1505135175.0,286046999.7,N,1.5
1505135175.9,286046999.7,N,1.5
1505135195.8,286047002.0,N,1.5
1505135215.6,286047002.0,N,1.5
1505135235.5,286047001.6,N,1.5
1505135255.3,286047002.0,N,1.4
1505135275.1,286047001.6,N,1.4
1505135295.9,286047002.1,N,1.3
1505135315.7,286047002.1,N,1.3
1505135335.6,286047002.1,N,1.3
1505135355.4,286047001.8,N,1.3
1505135375.2,286047002.0,N,1.3
1505135395.1,286047002.1,N,1.3
1505135396.0,286047002.1,N,1.2
1505135415.8,286047002.1,N,1.1
1505135435.7,286046999.7,N,1.1
1505135455.5,286047001.3,N,1.0
1505135475.3,286047001.6,N,0.9
1505135495.2,286047001.3,N,0.9
1505135515.0,286047004.0,Y,0.0
1505135515.9,286047004.0,P,1.2
1505135535.8,286047004.4,P,1.2
1505135555.6,286047001.5,N,1.3
1505135575.4,286047002.0,N,1.2
1505135595.3,286047002.4,N,1.1
1505135615.1,286047002.7,N,1.1
1505135635.9,286047002.2,N,1.0
1505135655.7,286047000.2,N,1.2
1505135675.5,286047000.4,N,1.3
1505135695.4,286046999.8,N,1.4
1505135715.2,286047002.7,N,1.4
1505135735.0,286047000.2,N,1.4
1505135736.0,286047000.2,N,1.4
1505135755.8,286047002.3,N,1.4
1505135775.6,286047000.0,N,1.4
1505135795.5,286047002.7,N,1.4
1505135815.3,286047001.6,N,1.3
1505135835.1,286047001.8,N,1.3
1505135855.9,286047001.8,N,1.3
1505135875.7,286047002.6,N,1.2
1505135895.6,286047002.4,N,1.2
1505135915.4,286047002.4,N,1.2
1505135935.2,286047002.7,N,1.2
1505135955.1,286047002.4,N,1.2
1505135956.0,286047002.4,N,1.2
1505135975.8,286047000.4,N,1.2
1505135995.7,286047002.4,N,1.1
1505136015.5,286046999.7,N,1.2
1505136035.3,286047002.5,N,1.2
1505136055.2,286047001.3,N,1.2
1505136075.0,286047002.0,N,1.1
1505136075.9,286047002.0,N,1.0
1505136095.8,286047002.0,N,1.0
1505136115.6,286047002.5,N,1.0
1505136135.4,286047002.5,N,1.0
1505136155.3,286047001.7,N,1.0
1505136175.1,286047002.1,N,1.0
1505136195.9,286047001.5,N,1.0
1505136215.7,286047004.4,Y,0.0
1505136235.5,286047000.7,P,0.5
1505136255.4,286047000.8,N,0.4
1505136275.2,286047001.1,N,0.4
1505136295.1,286047000.6,N,0.4
1505136296.0,286047000.6,N,0.4
1505136315.8,286047000.8,N,0.4
1505136335.6,286047000.9,N,0.3
1505136355.5,286047000.5,N,0.3
1505136375.3,286047000.5,N,0.3
1505136395.2,286042750.9,Y,0.0
1505136415.0,286046998.2,P,1.3
1505136415.9,286046998.2,N,1.2
1505136435.7,286047000.7,N,1.3
1505136455.6,286046998.8,N,1.2
1505136475.4,286046999.1,N,1.1
1505136495.3,286046998.9,N,1.0
1505136515.1,286046999.0,N,0.9
1505136535.8,286047001.2,N,1.1
1505136555.7,286046999.3,N,1.0
1505136575.5,286046998.1,N,1.1
1505136595.4,286047001.1,N,1.1
1505136615.2,286046999.4,N,1.1
1505136635.0,286046998.6,N,1.1
1505136635.9,286046998.6,N,1.0
1505136655.8,286047001.2,N,1.1
1505136675.6,286047000.7,N,1.1
1505136695.5,286047000.6,N,1.1
1505136715.3,286047000.4,N,1.1
1505136735.1,286047000.2,N,1.1
1505136755.9,286047001.0,N,1.1
1505136775.7,286046998.2,N,1.1
1505136795.6,286047000.8,N,1.1
1505136815.4,286047000.8,N,1.1
1505136835.2,286046998.1,N,1.1
1505136855.1,286046998.5,N,1.1
1505136856.0,286046998.5,N,1.1
1505136875.8,286047000.8,N,1.1
1505136895.7,286047000.6,N,1.1
1505136915.5,286047000.3,N,1.1
1505136935.3,286047000.3,N,1.1
1505136955.2,286047000.1,N,1.1
1505136975.0,286047000.2,N,1.0
1505136975.9,286047000.2,N,1.0
1505136995.8,286047000.0,N,1.0
1505137015.6,286047000.3,N,1.0
1505137035.4,286047000.0,N,1.0
1505137055.3,286047000.9,N,1.0
1505137075.1,286047000.3,N,1.0
1505137095.9,286047000.3,N,1.0
1505137115.7,286047000.6,N,0.9
1505137135.5,286047000.9,N,0.9
1505137155.4,286047001.1,N,0.9
1505137175.2,286047000.5,N,0.9
1505137195.0,286046998.2,N,0.9
1505137195.9,286046998.2,N,0.9
1505137215.8,286047001.0,N,0.9
1505137235.6,286047000.9,N,0.9
1505137255.5,286047000.2,N,0.9
1505137275.3,286047000.0,N,0.9
1505137295.2,286047000.8,N,0.9
1505137315.9,286047000.7,N,0.9
1505137335.7,286046998.1,N,0.9
1505137355.6,286046998.6,N,1.0
1505137375.4,286046999.3,N,0.9
1505137395.3,286046998.1,N,0.9
1505137415.1,286047000.6,N,0.9
1505137416.0,286047000.6,N,0.9
1505137435.8,286047000.0,N,0.9
1505137455.7,286047000.3,N,0.9
1505137475.5,286047000.6,N,0.9
1505137495.4,286046999.9,N,0.9
1505137515.2,286046999.9,N,0.9
1505137535.0,286047000.6,N,0.9
1505137535.9,286047000.6,N,0.9
1505137555.8,286047000.2,N,0.9
1505137575.6,286047002.6,N,1.0
1505137595.5,286047002.8,N,1.1
1505137615.3,286047000.3,N,1.1
1505137635.1,286047002.2,N,1.2
1505137655.9,286047001.6,N,1.2
1505137675.7,286047001.9,N,1.2
1505137695.6,286047001.6,N,1.2
1505137715.4,286047002.0,N,1.3
1505137735.2,286047004.3,Y,0.0
1505137755.1,286047002.0,P,0.8
1505137756.0,286047002.0,N,0.7
1505137775.8,286047002.2,N,0.7
1505137795.7,286047002.7,Y,0.0
1505137815.5,286046998.7,P,1.5
1505137835.4,286046998.8,N,1.4
1505137855.2,286046999.0,N,1.2
1505137875.0,286046999.4,N,1.1
1505137875.9,286046999.4,N,1.0
1505137895.8,286046998.3,N,1.0
1505137915.6,286046999.0,N,1.0
1505137935.5,286046999.5,N,0.9
1505137955.3,286046999.2,N,0.9
1505137975.1,286046999.6,N,0.8
1505137995.9,286046996.9,Y,0.0
1505138015.7,286046996.5,P,1.4
1505138035.5,286046996.8,N,1.3
1505138055.4,286046999.6,N,1.4
1505138075.2,286046997.9,N,1.3
1505138095.1,286046997.6,N,1.2
1505138096.0,286046997.6,N,1.1
1505138115.8,286046997.7,N,1.0
1505138135.6,286046995.1,Y,0.0
1505138155.5,286046997.1,P,0.4
1505138175.3,286046997.7,P,0.3
1505138195.2,286046997.5,P,0.3
1505138215.0,286046998.0,Y,0.0
1505138215.9,286046998.0,P,0.2
1505138235.8,286046998.2,P,0.3
1505138255.6,286046999.3,N,0.6
1505138275.4,286046997.1,Y,0.0
1505138295.3,286046999.0,P,0.4
1505138315.1,286046998.3,P,0.3
1505138335.9,286046998.4,P,0.3
1505138355.7,286046999.3,N,0.4
1505138375.5,286046998.8,N,0.4
1505138395.4,286046998.9,N,0.4
